Location: Unspecified
(0.0000°N, 0.0000°E)
Time: 11:27:05
(UTC+00:00)

S-56A Canister/Altair - Pass Details

Date: 06 December 2023
Orbit: 640 x 2488 km, 38.9° (Epoch: 24 February)

Event Time Altitude Azimuth Distance (km) Brightness Sun altitude
Rises 04:26:25 0° 208° (SSW) 5,963 12.0 -19.4°
Reaches altitude 10° 04:32:52 10° 189° (S) 4,674 11.7 -18.0°
Maximum altitude 04:39:53 16° 155° (SSE) 3,735 11.6 -16.3°
Drops below altitude 10° 04:45:45 10° 120° (ESE) 3,806 12.5 -15.0°
Sets 04:50:02 0° 99° (E) 4,426 13.1 -14.0°
